{"data":{"norad_id":54781,"epoch":"2026-09-20T21:32:25.639872Z","epoch_age_seconds":55285,"freshness":"FRESH","line1":"1 54781U 22175Z   26263.89751898  .00001284  00000+0  49155-4 0  9998","line2":"2 54781  53.1585 217.7925 0001312  89.5832 270.5321 15.34380632209803","mean_motion":15.34380632,"eccentricity":0.0001312,"inclination_deg":53.1585,"raan_deg":217.7925,"arg_perigee_deg":89.5832,"mean_anomaly_deg":270.5321,"bstar":4.9155e-5,"rev_number":20980,"period_min":93.848942691816,"perigee_km":461.86328079803,"apogee_km":463.65833238248,"semimajor_km":6840.8978065903,"source":"CELESTRAK","updated_at":"2026-09-21T09:00:33.124842Z"}}